Location: Unspecified
(0.0000°N, 0.0000°E)
Time: 22:09:35
(UTC+00:00)

Explorer 11/Cluster Stage 4 - All Passes

Search period start: 21 September 2014 00:00
Search period end: 01 October 2014 00:00
Orbit: 468 x 1283 km, 28.8° (Epoch: 20 September)

Date Brightness Start Highest point End Pass type
(mag) Time Alt. Az. Time Alt. Az. Time Alt. Az.
21 Sep - 07:11:57 10° SW 07:16:11 33° SSE 07:19:47 10° E daylight
21 Sep - 09:01:11 10° W 09:04:42 29° NNW 09:07:55 10° NNE daylight
21 Sep - 18:09:52 10° NNW 18:15:29 30° NNE 18:22:01 10° E visible
21 Sep - 19:57:38 10° WNW 20:04:58 84° SSW 20:13:21 10° ESE visible
21 Sep - 21:48:13 10° W 21:55:02 30° SSW 22:02:06 10° SSE visible
21 Sep - 23:43:58 10° SSW 23:45:52 11° SSW 23:47:44 10° S night (unlit)
22 Sep - 05:18:02 10° S 05:20:11 12° SSE 05:22:12 10° SE visible
22 Sep - 07:04:56 10° SW 07:09:40 48° SSE 07:13:33 10° ENE daylight
22 Sep - 08:54:57 10° W 08:58:07 22° NNW 09:01:01 10° NNE daylight
22 Sep - 18:02:57 10° NNW 18:08:42 36° NNE 18:15:32 10° E visible
22 Sep - 19:51:02 10° WNW 19:58:08 70° SSW 20:06:23 10° SE visible
22 Sep - 21:42:04 10° WSW 21:48:19 25° SSW 21:54:52 10° SSE visible
23 Sep - 05:10:06 10° SSW 05:13:44 17° SSE 05:16:56 10° ESE visible
23 Sep - 06:58:00 10° SW 07:03:06 69° SSE 07:07:12 10° ENE daylight
23 Sep - 08:48:54 10° WNW 08:51:31 16° NNW 08:53:56 10° N daylight
23 Sep - 17:56:07 10° NW 18:01:54 43° NNE 18:08:56 10° ESE daylight
23 Sep - 19:44:31 10° WNW 19:51:20 57° SSW 19:59:20 10° SE visible
23 Sep - 21:36:03 10° WSW 21:41:39 21° SSW 21:47:32 10° SSE visible
24 Sep - 05:02:34 10° SSW 05:07:15 22° SSE 05:11:12 10° ESE visible
24 Sep - 06:51:09 10° WSW 06:56:29 85° NNW 07:00:43 10° ENE daylight
24 Sep - 08:43:09 10° WNW 08:44:54 12° NNW 08:46:34 10° N daylight
24 Sep - 16:04:10 10° N 16:06:07 12° NNE 16:08:11 10° NE daylight
24 Sep - 17:49:21 10° NW 17:55:05 53° NNE 18:02:14 10° ESE daylight
24 Sep - 19:38:05 10° W 19:44:34 46° SSW 19:52:13 10° SE visible
24 Sep - 21:30:13 10° WSW 21:35:02 17° SSW 21:40:05 10° SSE visible
25 Sep - 03:09:16 10° S 03:10:21 10° SSE 03:11:25 10° SSE visible
25 Sep - 04:55:13 10° SSW 05:00:42 29° SSE 05:05:13 10° E visible
25 Sep - 06:44:22 10° WSW 06:49:50 63° NNW 06:54:09 10° NE daylight
25 Sep - 15:56:41 10° N 15:59:27 14° NNE 16:02:32 10° ENE daylight
25 Sep - 17:42:39 10° NW 17:48:18 67° NNE 17:55:26 10° ESE daylight
25 Sep - 19:31:46 10° W 19:37:51 37° SSW 19:45:01 10° SE visible
25 Sep - 21:24:38 10° SW 21:28:28 14° SSW 21:32:27 10° S visible
26 Sep - 03:00:33 10° S 03:03:53 13° SSE 03:06:59 10° SE visible
26 Sep - 04:47:57 10° SW 04:54:06 38° SSE 04:59:04 10° E visible
26 Sep - 06:37:40 10° WSW 06:43:08 47° NNW 06:47:30 10° NE daylight
26 Sep - 15:49:29 10° N 15:52:46 18° NNE 15:56:31 10° ENE daylight
26 Sep - 17:36:01 10° WNW 17:41:31 84° NNE 17:48:33 10° ESE daylight
26 Sep - 19:25:34 10° W 19:31:10 30° SSW 19:37:43 10° SSE visible
26 Sep - 21:19:29 10° SW 21:21:56 12° SSW 21:24:27 10° S visible
27 Sep - 02:52:44 10° SSW 02:57:22 17° SSE 03:01:33 10° ESE visible
27 Sep - 04:40:46 10° SW 04:47:28 49° SSE 04:52:46 10° ENE visible
27 Sep - 06:31:02 10° W 06:36:24 36° NNW 06:40:45 10° NE daylight
27 Sep - 15:42:27 10° NNW 15:46:03 22° NNE 15:50:17 10° E daylight
27 Sep - 17:29:28 10° WNW 17:34:47 77° SSW 17:41:35 10° SE daylight
27 Sep - 19:19:31 10° WSW 19:24:32 24° SSW 19:30:20 10° SSE visible
28 Sep - 02:45:09 10° SSW 02:50:46 21° SSE 02:55:46 10° ESE visible
28 Sep - 04:33:39 10° SW 04:40:45 64° SSE 04:46:22 10° ENE visible
28 Sep - 06:24:29 10° W 06:29:39 29° NNW 06:33:55 10° NNE daylight
28 Sep - 15:35:30 10° NNW 15:39:20 27° NNE 15:43:54 10° E daylight
28 Sep - 17:23:00 10° WNW 17:28:04 59° SSW 17:34:33 10° SE daylight
28 Sep - 19:13:39 10° WSW 19:17:57 19° SSW 19:22:48 10° SSE visible
29 Sep - 00:51:52 10° S 00:53:11 10° SSE 00:54:29 10° SSE night (unlit)
29 Sep - 02:37:43 10° SSW 02:44:08 26° SSE 02:49:46 10° ESE visible
29 Sep - 04:26:37 10° WSW 04:34:00 81° SSE 04:39:50 10° ENE visible
29 Sep - 06:18:03 10° W 06:22:54 23° NNW 06:26:59 10° NNE daylight
29 Sep - 15:28:40 10° NNW 15:32:36 35° NNE 15:37:24 10° E daylight
29 Sep - 17:16:38 10° W 17:21:24 44° SSW 17:27:25 10° SE daylight
29 Sep - 19:08:03 10° SW 19:11:24 15° SSW 19:15:04 10° SSE visible
30 Sep - 00:43:22 10° S 00:46:39 13° SSE 00:49:51 10° SE night (unlit)
30 Sep - 02:30:22 10° SW 02:37:26 32° SSE 02:43:36 10° E visible
30 Sep - 04:19:38 10° WSW 04:27:11 81° NNW 04:33:13 10° NE visible
30 Sep - 06:11:45 10° WNW 06:16:08 19° NNW 06:19:57 10° NNE daylight
30 Sep - 15:21:53 10° NW 15:25:53 46° NNE 15:30:47 10° ESE daylight
30 Sep - 17:10:22 10° W 17:14:46 33° SSW 17:20:12 10° SE daylight
30 Sep - 19:03:04 10° SSW 19:04:53 11° SSW 19:06:47 10° S visible
